Regional Weather Roundup
Issued by NWS

Home | Current Version | Previous Version | Graphics & Text | Print | Product List | Glossary On
Versions: 1 2 3 4 5 6 7 8 9 10 11 12 13 14 15 16 17 18 19 20 21 22 23 24 25 26 27 28 29 30 31 32 33 34 35 36 37 38 39 40 41 42 43 44 45 46 47 48 49 50
000
ASUS45 KTFX 211619
RWRMT
MONTANA HOURLY WEATHER ROUNDUP
NATIONAL WEATHER SERVICE GREAT FALLS MT
919 AM MST SUN DEC 21 2014

NOTE: "FAIR" INDICATES FEW OR NO CLOUDS BELOW 12000 FEET WITH NO
SIGNIFICANT WEATHER AND/OR OBSTRUCTIONS TO VISIBILITY.

* THESE STATIONS ARE NOT UNDER NWS QUALITY CONTROL. THEY DO NOT
   REPORT WEATHER SUCH AS PRECIPITATION OR FOG.

MTZ001>007-043-211700-
WEST OF THE DIVIDE
CITY           SKY/WX    TMP DP  RH WIND       PRES   REMARKS
KALISPELL      CLOUDY    34  34 100 S7        29.48R WCI  28
MISSOULA       FOG       32  32 100 CALM      29.63R VSB 1/2
BUTTE          LGT SNOW  34  30  85 N6        29.56R VSB 2 1/2 WCI  29
MULLAN PASS    PTSUNNY  N/A N/A N/A N/A       29.59R
* ESSEX        N/A       32  32 100 N/A        N/A
* EUREKA APT   PTSUNNY   45  34  65 SE5       29.45R
* HAMILTON APT PTSUNNY   41  36  82 NE5       29.63R
* LIBBY APT    PTCLDY    34  34 100 E6        29.54R WCI  29
* LINCOLN      N/A       33  32  96 S2         N/A
* POLSON       N/A       33  33 100 E2         N/A
* RONAN APT    PTCLDY    39  36  89 SW15G29    N/A   WCI  31
* SEELEY LAKE  N/A       32  31  96 NE2G7      N/A
* THOMP F APT  PTCLDY    28  27  96 N1         N/A
$$

MTZ008-052>055-211700-
SOUTHWEST MONTANA
CITY           SKY/WX    TMP DP  RH WIND       PRES   REMARKS
BOZEMAN        CLOUDY    39  30  70 NE10      29.53R WCI  32
DILLON         CLOUDY    37  34  89 SW12      29.58R WCI  29
* W YELLOWSTON PTSUNNY   29  27  92 SW6G14     N/A   WCI  23
* THREE FORKS  PTCLDY    39  39 100 N/A        N/A
* BOULDER HILL N/A       33  31  92 SW4G12     N/A
* MONIDA PASS  N/A       27  27 100 SE11       N/A   WCI  17
* RAYNOLDS PAS N/A       29  11  47 S15G20     N/A   WCI  18
* WHITEHALL    N/A       40  32  73 W14G29     N/A   WCI  32
* WISE RIVER   N/A       34  32  92 NW10       N/A   WCI  26
$$

MTZ009>010-012-014-046-048-049-054-211700-
EAST SLOPES AND CENTRAL MONTANA
CITY           SKY/WX    TMP DP  RH WIND       PRES   REMARKS
CUT BANK       PTCLDY    39  30  70 W25       29.27F WCI  28
GREAT FALLS    PTSUNNY   43  32  65 SW17      29.34R
HELENA         PTCLDY    43  32  65 W20G30    29.47R
MALMSTROM AFB  PTSUNNY   43  32  65 SW18G25   29.37R
* CONRAD       PTSUNNY   37  34  89 SW5        N/A   WCI  33
* DEARBORN     N/A       45  31  58 SE8G16     N/A
* EAST GLACIER N/A       36  29  76 W43G57     N/A   WCI  21
* MONARCH      N/A       39  23  53 SW23G32    N/A   WCI  28
* PENDROY      N/A       41  27  58 W20G29     N/A
* ROGERS PASS  N/A       32  32 100 SE14G27    N/A   WCI  22
* SWEET GRASS  N/A       38  28  67 W22G29     N/A   WCI  27
* WHITE SULPH  N/A       36  30  79 S10G20     N/A   WCI  29
$$

MTZ011-013-016-021-035-040-045-047-050-051-211700-
NORTH CENTRAL MONTANA
CITY           SKY/WX    TMP DP  RH WIND       PRES   REMARKS
HAVRE          CLOUDY    39  34  82 SW15      29.27S WCI  31
LEWISTOWN      CLOUDY    43  30  60 SW20      29.34F
* N BAR RANCH  PTSUNNY   45  28  51 W14G29    29.32F
* CHINOOK      CLOUDY    27  25  92 E9        29.29S WCI  18
* CHESTER      N/A       28  26  92 NE2        N/A
* DENTON       N/A       42  30  63 SW16G21    N/A
* GEYSER       N/A       43  27  53 SW19G31    N/A
* JUDITH GAP   N/A       40  32  73 SW27G36    N/A   WCI  29
* LOMA         N/A       46  34  63 S17G32     N/A
$$

MTZ017>020-022>027-061-062-211700-
NORTHEAST MONTANA
CITY           SKY/WX    TMP DP  RH WIND       PRES   REMARKS
GLASGOW        CLOUDY    27  23  85 SE12      29.34F WCI  16
GLENDIVE       CLOUDY    28  25  89 SW6       29.41F WCI  21
JORDAN         CLOUDY    27  25  92 CALM      29.35F
SIDNEY         CLOUDY    25  21  85 CALM      29.44F
WOLF POINT     PTCLDY    19  16  88 E7        29.39F WCI  10
* BEAVER HILL  N/A       37  25  62 S14        N/A   WCI  28
* CIRCLE       N/A       33  28  82 N/A        N/A
* LINDSAY DVD  N/A       28  25  89 E3         N/A
* PLENTYWOOD A SUNNY     23  19  85 E7        29.40F WCI  15
* POPLAR APT   PTCLDY    21  18  88 N5        29.39F WCI  14
* SACO         N/A       25  23  92 N/A        N/A
$$

MTZ028>042-056>058-211700-
SOUTHCENTRAL AND SOUTHEAST MONTANA
CITY           SKY/WX    TMP DP  RH WIND       PRES   REMARKS
BAKER          CLOUDY    28  27  96 E8        29.43F WCI  20
BILLINGS       CLOUDY    41  25  53 SW17      29.42S
LIVINGSTON     LGT RAIN  39 N/A N/A SW21      29.49R WCI  29
MILES CITY     CLOUDY    30  25  82 SE8       29.41S WCI  22
* FORSYTH APT  CLOUDY    39  34  82 SW6       29.38F WCI  35
* LAUREL APT   CLOUDY    39  19  45 W8         N/A   WCI  33
* ROUNDUP APT  CLOUDY    34  25  70 S9         N/A   WCI  27
* ALZADA       N/A       35  28  76 SE4        N/A
* HYSHAM       N/A       40  29  65 W6         N/A   WCI  36
* LAME DEER    N/A       36  30  79 N/A        N/A
* REED POINT   N/A       29  26  89 NW3        N/A
* ROSCOE HILL  N/A       39  19  45 SW11G27    N/A   WCI  32
$$

REGIONAL REPORTS...DAKOTAS
CITY           SKY/WX    TMP DP  RH WIND       PRES   REMARKS
WILLISTON      CLOUDY    21  18  88 CALM      29.44F
DICKINSON      SUNNY     30  25  82 S10       29.43F WCI  21
BEACH          CLOUDY    32  28  85 S7        29.43F WCI  25
CROSBY         SUNNY     25  23  92 S6        29.45S WCI  18
TIOGA          SUNNY     18  18 100 SE7       29.48F WCI   9
WATFORD CITY   PTSUNNY   27  23  85 SE7       29.42F WCI  19
BISMARCK       PTCLDY    25  23  92 SE5       29.56F WCI  19
GRAND FORKS    FOG       30  28  92 S17       29.68F WCI  18
FARGO          FOG       32  28  85 S13G23    29.70F VSB 2 1/2 WCI  22
BUFFALO SD     SUNNY     30  23  75 SE5       29.40F WCI  25
RAPID CITY     SUNNY     30  25  82 E6        29.48F WCI  24
$$

REGIONAL REPORTS...WYOMING/IDAHO/WASHINGTON
CITY           SKY/WX    TMP DP  RH WIND       PRES   REMARKS
GILLETTE       CLOUDY    39  27  62 SW22G28   29.44F WCI  29
SHERIDAN       CLOUDY    28  23  81 SE5       29.45F WCI  22
CODY           CLOUDY    39  30  70 W21G29    29.49F WCI  29
YELLOWSTONE LA PTSUNNY   28  25  89 VRB6      29.64R WCI  21
SALMON         CLOUDY    39  34  82 W8        29.64R WCI  33
MULLAN PASS    PTSUNNY  N/A N/A N/A N/A       29.59S
SAND POINT     PTCLDY    41  41 100 SW8       29.59R
SPOKANE        PTSUNNY   43  36  76 W20       29.65R
$$

REGIONAL REPORTS...ALBERTA
CITY           SKY/WX    TMP DP  RH WIND       PRES   REMARKS
CALGARY        PTSUNNY   34  23  64 N10       29.23R WCI  26
LETHBRIDGE     PTSUNNY   41  30  65 W29G36    29.22R
MEDICINE HAT   PTSUNNY   37  32  82 SW13G21   29.20R WCI  29
EDMONTON       PTSUNNY   19  16  88 NW3       29.30R
WATERTON GATE  N/A       39  30  70 SW15G21    N/A   WCI  31
CARDSTON       N/A       39  30  70 W9         N/A   WCI  33
MILK RIVER     N/A       37  28  70 W5         N/A   WCI  33
$$

REGIONAL REPORTS...SASKATCHEWAN
CITY           SKY/WX    TMP DP  RH WIND       PRES   REMARKS
SWIFT CURRENT  SUNNY     25  21  85 S14       29.26F WCI  13
VAL MARIE      N/A       27  25  92 SE5        N/A   WCI  21
ASSINIBOIA     N/A       23  18  81 SE7        N/A   WCI  15
CORONACH       N/A       19  18  96 E6         N/A   WCI  11

$$




USA.gov is the U.S. government's official web portal to all federal, state and local government web resources and services.